Regional Weather Roundup
Issued by NWS Kansas City/Pleasant Hill, MO

Home | Current Version | Previous Version | Text Only | Print | Product List | Glossary On
Versions: 1 2 3 4 5 6 7 8 9 10 11 12 13 14 15 16 17 18 19 20 21 22 23 24 25 26 27
000
ASUS43 KEAX 231510
RWREAX

WEATHER ROUNDUP FOR EASTERN KANSAS AND NORTHWEST MISSOURI
NATIONAL WEATHER SERVICE KANSAS CITY/PLEASANT HILL MO
900 AM CST MON JAN 23 2017

KSZ040-057-103>105-MOZ028-029-037-043-231600-
...KANSAS CITY METROPOLITAN AREA...

CITY           SKY/WX    TMP DP  RH WIND       PRES   REMARKS
K.C. INTL      FOG       32  30  92 NW5       29.90R VSB 1/2 WCI  27
K.C. DOWNTOWN  CLOUDY    33  31  92 N5        29.91R FOG     WCI  29
LEES SUMMIT    FOG       31  31 100 N8        29.90R VSB 1   WCI  23
OLATHE - IXD   FOG       30  30 100 N7        29.90R VSB<1/4 WCI  23
OLATHE - OJC   FOG       30  30 100 N5        29.90R VSB 1/4 WCI  25
LAWRENCE       FOG       29  29 100 CALM      29.91R VSB 1/4

$$

MOZ001>008-011>017-020>025-030>033-038>040-044>046-053-054-231600-
...NORTHERN AND CENTRAL MISSOURI...

CITY           SKY/WX    TMP DP  RH WIND       PRES   REMARKS
ST. JOSEPH     CLOUDY    31  31 100 N8        29.91S FOG     WCI  23
MOSBY            N/A     32  32 100 NW3       29.91R FOG
WARRENSBURG    CLOUDY    32  32 100 NW3       29.91R FOG
WHITEMAN AFB   FOG       32  32 100 N7        29.90R VSB 1   WCI  26
CLINTON        FOG       32  32 100 NW3       29.92R VSB 1
SEDALIA        CLOUDY    36  34  92 N7        29.90R FOG     WCI  30
WARSAW         NOT AVBL
CHILLICOTHE      N/A     34  29  82 NW8       29.91R WCI  27
KIRKSVILLE     CLOUDY    34  32  92 N7        29.87R WCI  28

$$

MOZ041-047>049-056>058-063>065-088>090-097-231600-
...EASTERN AND SOUTHERN MISSOURI...

CITY           SKY/WX    TMP DP  RH WIND       PRES   REMARKS
ST. LOUIS INTL CLOUDY    42  36  79 N14       29.81F WCI  35
SPIRIT OF STL  CLOUDY    42  37  82 NW7       29.83S
COLUMBIA       CLOUDY    39  36  89 NW10      29.86S WCI  32
JEFFERSON CITY CLOUDY    39  36  89 W9        29.88R WCI  33
ROLLA          CLOUDY    38  36  92 NW9       29.84R WCI  31
OSAGE BEACH    CLOUDY    38  35  89 MISG      29.89R
SPRINGFIELD    CLOUDY    37  35  92 NW7       29.89R WCI  32
BRANSON        CLOUDY    37  36  93 NW9       29.90R WCI  31
JOPLIN         PTSUNNY   36  35  96 CALM      29.91F
WEST PLAINS    CLOUDY    41  34  76 N12G23    29.85R WCI  34

$$

IAZ060-094-KSZ022-034>040-054-083-096-NEZ052-066-093-231600-
...KANSAS...SOUTHEAST NEBRASKA AND IOWA...

CITY           SKY/WX    TMP DP  RH WIND       PRES   REMARKS
TOPEKA         FOG       30  27  88 N8        29.91S VSB 1/2 WCI  22
MANHATTAN      SUNNY     28  25  88 CALM      29.90S
EMPORIA        CLOUDY    30  29  96 CALM      29.90R FOG
CHANUTE        SUNNY     33  30  88 CALM      29.90F
WICHITA        PTSUNNY   34  32  92 S3        29.89R
OMAHA          CLOUDY    33  27  78 NW5       29.90S WCI  29
LINCOLN        CLOUDY    31  28  89 NE5       29.91R WCI  26
FALLS CITY     CLOUDY    31  28  89 N7        29.90S WCI  24
LAMONI         CLOUDY    31  29  92 NW8       29.87R WCI  23
DES MOINES     CLOUDY    33  29  85 N6        29.87R WCI  28

$$





USA.gov is the U.S. government's official web portal to all federal, state and local government web resources and services.